contact:dominique.lefevre@mio.osupytheas.fr, maurice.libes@osupytheas.fr, didier.mallarino@osupytheas.fr
Project:EMSO http://www.emso-fr.org/EMSO-France
Depth: 2436.0 m
Title:EMSO Ligure Ouest : Data MII capteur MICROCAT
DateTime_Computer,Latitude,Longitude,Temperature,Conductivity,Pressure,DateTime_Instrument
DateTime_Computer,Latitude,Longitude,degC,S m-1,dbar,DateTime_Instrument
2021-08-26T00:01:38Z,42.805,6.029,13.2985,4.60003,2470.353,2021-8-26T02:02:57Z
2021-08-26T00:04:41Z,42.805,6.029,13.2983,4.60003,2470.343,2021-8-26T02:06:00Z
2021-08-26T00:07:44Z,42.805,6.029,13.2989,4.60007,2470.366,2021-8-26T02:09:03Z
2021-08-26T00:10:47Z,42.805,6.029,13.2987,4.60003,2470.357,2021-8-26T02:12:06Z
2021-08-26T00:13:50Z,42.805,6.029,13.2988,4.60003,2470.366,2021-8-26T02:15:09Z
2021-08-26T00:16:53Z,42.805,6.029,13.2986,4.60002,2470.32,2021-8-26T02:18:12Z
2021-08-26T00:19:56Z,42.805,6.029,13.2988,4.60007,2470.366,2021-8-26T02:21:16Z
2021-08-26T00:22:59Z,42.805,6.029,13.2986,4.60007,2470.32,2021-8-26T02:24:19Z
2021-08-26T00:26:02Z,42.805,6.029,13.2986,4.60009,2470.334,2021-8-26T02:27:22Z
2021-08-26T00:29:06Z,42.805,6.029,13.2986,4.60006,2470.343,2021-8-26T02:30:25Z
2021-08-26T00:32:09Z,42.805,6.029,13.2990,4.60005,2470.357,2021-8-26T02:33:28Z
2021-08-26T00:35:12Z,42.805,6.029,13.2985,4.60003,2470.32,2021-8-26T02:36:31Z
2021-08-26T00:38:15Z,42.805,6.029,13.2988,4.60005,2470.343,2021-8-26T02:39:34Z
2021-08-26T00:41:18Z,42.805,6.029,13.2985,4.60006,2470.32,2021-8-26T02:42:37Z
2021-08-26T00:44:21Z,42.805,6.029,13.2986,4.60005,2470.32,2021-8-26T02:45:41Z
2021-08-26T00:47:24Z,42.805,6.029,13.2985,4.60003,2470.32,2021-8-26T02:48:44Z
2021-08-26T00:50:27Z,42.805,6.029,13.2984,4.60003,2470.32,2021-8-26T02:51:47Z
2021-08-26T00:53:31Z,42.805,6.029,13.2985,4.60006,2470.32,2021-8-26T02:54:50Z
2021-08-26T00:56:34Z,42.805,6.029,13.2986,4.60003,2470.32,2021-8-26T02:57:53Z
2021-08-26T00:59:37Z,42.805,6.029,13.2984,4.60005,2470.32,2021-8-26T03:00:56Z
2021-08-26T01:02:40Z,42.805,6.029,13.2987,4.60003,2470.32,2021-8-26T03:03:59Z
2021-08-26T01:05:43Z,42.805,6.029,13.2990,4.60003,2470.32,2021-8-26T03:07:02Z
2021-08-26T01:08:46Z,42.805,6.029,13.2985,4.60004,2470.343,2021-8-26T03:10:06Z
2021-08-26T01:11:49Z,42.805,6.029,13.2991,4.60003,2470.32,2021-8-26T03:13:09Z
2021-08-26T01:14:52Z,42.805,6.029,13.2986,4.60002,2470.343,2021-8-26T03:16:12Z
2021-08-26T01:17:56Z,42.805,6.029,13.2990,4.60007,2470.32,2021-8-26T03:19:15Z
2021-08-26T01:20:59Z,42.805,6.029,13.2986,4.60003,2470.297,2021-8-26T03:22:18Z
2021-08-26T01:24:02Z,42.805,6.029,13.2983,4.60002,2470.32,2021-8-26T03:25:21Z
2021-08-26T01:27:05Z,42.805,6.029,13.2986,4.60003,2470.32,2021-8-26T03:28:24Z
2021-08-26T01:30:08Z,42.805,6.029,13.2987,4.60002,2470.297,2021-8-26T03:31:27Z
2021-08-26T01:33:11Z,42.805,6.029,13.2985,4.60001,2470.297,2021-8-26T03:34:31Z
2021-08-26T01:36:14Z,42.805,6.029,13.2986,4.60001,2470.32,2021-8-26T03:37:34Z
2021-08-26T01:39:17Z,42.805,6.029,13.2986,4.60003,2470.297,2021-8-26T03:40:37Z
2021-08-26T01:42:21Z,42.805,6.029,13.2986,4.60003,2470.273,2021-8-26T03:43:40Z
2021-08-26T01:45:24Z,42.805,6.029,13.2987,4.60002,2470.32,2021-8-26T03:46:43Z
2021-08-26T01:48:27Z,42.805,6.029,13.2986,4.60001,2470.273,2021-8-26T03:49:46Z
2021-08-26T01:51:30Z,42.805,6.029,13.2987,4.60003,2470.32,2021-8-26T03:52:49Z
2021-08-26T01:54:33Z,42.805,6.029,13.2983,4.60002,2470.297,2021-8-26T03:55:52Z
2021-08-26T01:57:36Z,42.805,6.029,13.2985,4.60002,2470.297,2021-8-26T03:58:56Z
2021-08-26T02:00:39Z,42.805,6.029,13.2984,4.60003,2470.287,2021-8-26T04:01:59Z
2021-08-26T02:03:42Z,42.805,6.029,13.2986,4.60001,2470.273,2021-8-26T04:05:02Z
2021-08-26T02:06:46Z,42.805,6.029,13.2986,4.60004,2470.287,2021-8-26T04:08:05Z
2021-08-26T02:09:49Z,42.805,6.029,13.2989,4.60003,2470.297,2021-8-26T04:11:08Z
2021-08-26T02:12:52Z,42.805,6.029,13.2990,4.60001,2470.297,2021-8-26T04:14:11Z
2021-08-26T02:15:55Z,42.805,6.029,13.2985,4.60003,2470.273,2021-8-26T04:17:14Z
2021-08-26T02:18:58Z,42.805,6.029,13.2990,4.60003,2470.297,2021-8-26T04:20:17Z
2021-08-26T02:22:01Z,42.805,6.029,13.2983,4.60001,2470.227,2021-8-26T04:23:20Z
2021-08-26T02:25:04Z,42.805,6.029,13.2987,4.60002,2470.264,2021-8-26T04:26:24Z
2021-08-26T02:28:07Z,42.805,6.029,13.2986,4.60001,2470.273,2021-8-26T04:29:27Z
2021-08-26T02:31:11Z,42.805,6.029,13.2984,4.60003,2470.273,2021-8-26T04:32:30Z
2021-08-26T02:34:14Z,42.805,6.029,13.2986,4.60001,2470.31,2021-8-26T04:35:33Z
2021-08-26T02:37:17Z,42.805,6.029,13.2983,4.60003,2470.273,2021-8-26T04:38:36Z
2021-08-26T02:40:20Z,42.805,6.029,13.2986,4.60004,2470.273,2021-8-26T04:41:39Z
2021-08-26T02:43:23Z,42.805,6.029,13.2983,4.60001,2470.273,2021-8-26T04:44:42Z
2021-08-26T02:46:26Z,42.805,6.029,13.2991,4.60001,2470.264,2021-8-26T04:47:45Z
2021-08-26T02:49:29Z,42.805,6.029,13.2983,4.60000,2470.273,2021-8-26T04:50:49Z
2021-08-26T02:52:32Z,42.805,6.029,13.2984,4.60002,2470.25,2021-8-26T04:53:52Z
2021-08-26T02:55:36Z,42.805,6.029,13.2985,4.60003,2470.297,2021-8-26T04:56:55Z
2021-08-26T02:58:39Z,42.805,6.029,13.2983,4.60006,2470.24,2021-8-26T04:59:58Z
2021-08-26T03:01:42Z,42.805,6.029,13.2988,4.60004,2470.287,2021-8-26T05:03:01Z
2021-08-26T03:04:45Z,42.805,6.029,13.2983,4.60003,2470.264,2021-8-26T05:06:04Z
2021-08-26T03:07:48Z,42.805,6.029,13.2986,4.60001,2470.264,2021-8-26T05:09:07Z
2021-08-26T03:10:51Z,42.805,6.029,13.2988,4.60003,2470.264,2021-8-26T05:12:10Z
2021-08-26T03:13:54Z,42.805,6.029,13.2986,4.60003,2470.25,2021-8-26T05:15:14Z
2021-08-26T03:16:57Z,42.805,6.029,13.2985,4.60001,2470.227,2021-8-26T05:18:17Z
2021-08-26T03:20:00Z,42.805,6.029,13.2986,4.60002,2470.264,2021-8-26T05:21:20Z
2021-08-26T03:23:04Z,42.805,6.029,13.2986,4.60002,2470.227,2021-8-26T05:24:23Z
2021-08-26T03:26:07Z,42.805,6.029,13.2985,4.60003,2470.273,2021-8-26T05:27:26Z
2021-08-26T03:29:10Z,42.805,6.029,13.2984,4.60004,2470.24,2021-8-26T05:30:29Z
2021-08-26T03:32:13Z,42.805,6.029,13.2986,4.60003,2470.264,2021-8-26T05:33:32Z
2021-08-26T03:35:16Z,42.805,6.029,13.2988,4.60001,2470.227,2021-8-26T05:36:35Z
2021-08-26T03:38:19Z,42.805,6.029,13.2990,4.60002,2470.273,2021-8-26T05:39:39Z
2021-08-26T03:41:22Z,42.805,6.029,13.2986,4.60004,2470.264,2021-8-26T05:42:42Z
2021-08-26T03:44:25Z,42.805,6.029,13.2986,4.60002,2470.25,2021-8-26T05:45:45Z
2021-08-26T03:47:29Z,42.805,6.029,13.2983,4.60002,2470.227,2021-8-26T05:48:48Z
2021-08-26T03:50:32Z,42.805,6.029,13.2986,4.60003,2470.264,2021-8-26T05:51:51Z
2021-08-26T03:53:35Z,42.805,6.029,13.2984,4.60003,2470.24,2021-8-26T05:54:54Z
2021-08-26T03:56:38Z,42.805,6.029,13.2983,4.60000,2470.227,2021-8-26T05:57:57Z
2021-08-26T03:59:41Z,42.805,6.029,13.2990,4.60001,2470.25,2021-8-26T06:01:00Z
2021-08-26T04:02:44Z,42.805,6.029,13.2986,4.60002,2470.227,2021-8-26T06:04:04Z
2021-08-26T04:05:47Z,42.805,6.029,13.2985,4.60003,2470.264,2021-8-26T06:07:07Z
2021-08-26T04:08:50Z,42.805,6.029,13.2986,4.60003,2470.227,2021-8-26T06:10:10Z
2021-08-26T04:11:54Z,42.805,6.029,13.2983,4.60000,2470.24,2021-8-26T06:13:13Z
2021-08-26T04:14:57Z,42.805,6.029,13.2986,4.60002,2470.227,2021-8-26T06:16:16Z
2021-08-26T04:18:00Z,42.805,6.029,13.2983,4.60003,2470.264,2021-8-26T06:19:19Z
2021-08-26T04:21:03Z,42.805,6.029,13.2986,4.60003,2470.264,2021-8-26T06:22:22Z
2021-08-26T04:24:06Z,42.805,6.029,13.2988,4.60001,2470.227,2021-8-26T06:25:25Z
2021-08-26T04:27:09Z,42.805,6.029,13.2986,4.60000,2470.25,2021-8-26T06:28:29Z
2021-08-26T04:30:12Z,42.805,6.029,13.2983,4.60001,2470.25,2021-8-26T06:31:32Z
2021-08-26T04:33:15Z,42.805,6.029,13.2986,4.60002,2470.264,2021-8-26T06:34:35Z
2021-08-26T04:36:19Z,42.805,6.029,13.2986,4.60002,2470.25,2021-8-26T06:37:38Z
2021-08-26T04:39:22Z,42.805,6.029,13.2986,4.60001,2470.25,2021-8-26T06:40:41Z
2021-08-26T04:42:25Z,42.805,6.029,13.2986,4.60000,2470.273,2021-8-26T06:43:44Z
2021-08-26T04:45:28Z,42.805,6.029,13.2988,4.60003,2470.264,2021-8-26T06:46:47Z
2021-08-26T04:48:31Z,42.805,6.029,13.2986,4.59999,2470.227,2021-8-26T06:49:50Z
2021-08-26T04:51:34Z,42.805,6.029,13.2985,4.60001,2470.264,2021-8-26T06:52:54Z
2021-08-26T04:54:37Z,42.805,6.029,13.2985,4.60000,2470.264,2021-8-26T06:55:57Z
2021-08-26T04:57:40Z,42.805,6.029,13.2986,4.59999,2470.287,2021-8-26T06:59:00Z
2021-08-26T05:00:44Z,42.805,6.029,13.2990,4.60000,2470.25,2021-8-26T07:02:03Z
2021-08-26T05:03:47Z,42.805,6.029,13.2986,4.60000,2470.287,2021-8-26T07:05:06Z
2021-08-26T05:06:50Z,42.805,6.029,13.2986,4.59999,2470.264,2021-8-26T07:08:09Z
2021-08-26T05:09:53Z,42.805,6.029,13.2983,4.60000,2470.25,2021-8-26T07:11:12Z
2021-08-26T05:12:56Z,42.805,6.029,13.2986,4.60000,2470.264,2021-8-26T07:14:15Z
2021-08-26T05:15:59Z,42.805,6.029,13.2989,4.60001,2470.25,2021-8-26T07:17:18Z
2021-08-26T05:19:02Z,42.805,6.029,13.2987,4.60000,2470.236,2021-8-26T07:20:22Z
2021-08-26T05:22:05Z,42.805,6.029,13.2988,4.60001,2470.287,2021-8-26T07:23:25Z
2021-08-26T05:25:08Z,42.805,6.029,13.2990,4.59998,2470.273,2021-8-26T07:26:28Z
2021-08-26T05:28:12Z,42.805,6.029,13.2986,4.59999,2470.287,2021-8-26T07:29:31Z
2021-08-26T05:31:15Z,42.805,6.029,13.2988,4.59999,2470.31,2021-8-26T07:32:34Z
2021-08-26T05:34:18Z,42.805,6.029,13.2986,4.60001,2470.25,2021-8-26T07:35:37Z
2021-08-26T05:37:21Z,42.805,6.029,13.2986,4.59999,2470.287,2021-8-26T07:38:40Z
2021-08-26T05:40:24Z,42.805,6.029,13.2986,4.60000,2470.273,2021-8-26T07:41:43Z
2021-08-26T05:43:27Z,42.805,6.029,13.2986,4.59999,2470.273,2021-8-26T07:44:47Z
2021-08-26T05:46:30Z,42.805,6.029,13.2989,4.60001,2470.25,2021-8-26T07:47:50Z
2021-08-26T05:49:33Z,42.805,6.029,13.2984,4.59999,2470.273,2021-8-26T07:50:53Z
2021-08-26T05:52:37Z,42.805,6.029,13.2987,4.60000,2470.297,2021-8-26T07:53:56Z
2021-08-26T05:55:40Z,42.805,6.029,13.2984,4.60002,2470.25,2021-8-26T07:56:59Z
2021-08-26T05:58:43Z,42.805,6.029,13.2990,4.60001,2470.273,2021-8-26T08:00:02Z
2021-08-26T06:01:46Z,42.805,6.029,13.2986,4.59999,2470.297,2021-8-26T08:03:05Z
2021-08-26T06:04:49Z,42.805,6.029,13.2987,4.60000,2470.273,2021-8-26T08:06:08Z
2021-08-26T06:07:52Z,42.805,6.029,13.2987,4.60001,2470.297,2021-8-26T08:09:12Z
2021-08-26T06:10:55Z,42.805,6.029,13.2988,4.60001,2470.26,2021-8-26T08:12:15Z
2021-08-26T06:13:58Z,42.805,6.029,13.2987,4.60001,2470.297,2021-8-26T08:15:18Z
2021-08-26T06:17:02Z,42.805,6.029,13.2989,4.60001,2470.273,2021-8-26T08:18:21Z
2021-08-26T06:20:05Z,42.805,6.029,13.2984,4.60001,2470.334,2021-8-26T08:21:24Z
2021-08-26T06:23:08Z,42.805,6.029,13.2985,4.60000,2470.343,2021-8-26T08:24:27Z
2021-08-26T06:26:11Z,42.805,6.029,13.2986,4.60000,2470.32,2021-8-26T08:27:30Z
2021-08-26T06:29:14Z,42.805,6.029,13.2985,4.59999,2470.32,2021-8-26T08:30:33Z
2021-08-26T06:32:17Z,42.805,6.029,13.2986,4.60000,2470.297,2021-8-26T08:33:37Z
2021-08-26T06:35:20Z,42.805,6.029,13.2990,4.59999,2470.287,2021-8-26T08:36:40Z
2021-08-26T06:38:23Z,42.805,6.029,13.2988,4.59999,2470.297,2021-8-26T08:39:43Z
2021-08-26T06:41:27Z,42.805,6.029,13.2987,4.60001,2470.297,2021-8-26T08:42:46Z
2021-08-26T06:44:30Z,42.805,6.029,13.2987,4.59999,2470.334,2021-8-26T08:45:49Z
2021-08-26T06:47:33Z,42.805,6.029,13.2986,4.59999,2470.357,2021-8-26T08:48:52Z
2021-08-26T06:50:36Z,42.805,6.029,13.2983,4.59999,2470.32,2021-8-26T08:51:55Z
2021-08-26T06:53:39Z,42.805,6.029,13.2987,4.59999,2470.32,2021-8-26T08:54:58Z
2021-08-26T06:56:42Z,42.805,6.029,13.2987,4.59999,2470.343,2021-8-26T08:58:02Z
2021-08-26T06:59:45Z,42.805,6.029,13.2986,4.60000,2470.32,2021-8-26T09:01:05Z
2021-08-26T07:02:48Z,42.805,6.029,13.2983,4.59999,2470.357,2021-8-26T09:04:08Z
2021-08-26T07:05:52Z,42.805,6.029,13.2987,4.59999,2470.357,2021-8-26T09:07:11Z
2021-08-26T07:08:55Z,42.805,6.029,13.2984,4.59999,2470.31,2021-8-26T09:10:14Z
2021-08-26T07:11:58Z,42.805,6.029,13.2989,4.59998,2470.343,2021-8-26T09:13:17Z
2021-08-26T07:15:01Z,42.805,6.029,13.2986,4.59999,2470.343,2021-8-26T09:16:20Z
2021-08-26T07:18:04Z,42.805,6.029,13.2986,4.59999,2470.31,2021-8-26T09:19:23Z
2021-08-26T07:21:07Z,42.805,6.029,13.2988,4.59999,2470.343,2021-8-26T09:22:27Z
2021-08-26T07:24:10Z,42.805,6.029,13.2988,4.59999,2470.343,2021-8-26T09:25:30Z
2021-08-26T07:27:13Z,42.805,6.029,13.2984,4.60000,2470.366,2021-8-26T09:28:33Z
2021-08-26T07:30:17Z,42.805,6.029,13.2983,4.59999,2470.343,2021-8-26T09:31:36Z
2021-08-26T07:33:20Z,42.805,6.029,13.2986,4.59999,2470.343,2021-8-26T09:34:39Z
2021-08-26T07:36:23Z,42.805,6.029,13.2986,4.59997,2470.297,2021-8-26T09:37:42Z
2021-08-26T07:39:26Z,42.805,6.029,13.2989,4.59997,2470.343,2021-8-26T09:40:45Z
2021-08-26T07:42:29Z,42.805,6.029,13.2985,4.59999,2470.357,2021-8-26T09:43:48Z
2021-08-26T07:45:32Z,42.805,6.029,13.2986,4.59999,2470.366,2021-8-26T09:46:52Z
2021-08-26T07:48:35Z,42.805,6.029,13.2983,4.59999,2470.343,2021-8-26T09:49:55Z
2021-08-26T07:51:38Z,42.805,6.029,13.2987,4.59999,2470.334,2021-8-26T09:52:58Z
2021-08-26T07:54:42Z,42.805,6.029,13.2986,4.59999,2470.32,2021-8-26T09:56:01Z
2021-08-26T07:57:45Z,42.805,6.029,13.2986,4.59999,2470.334,2021-8-26T09:59:04Z
2021-08-26T08:00:48Z,42.805,6.029,13.2984,4.59999,2470.366,2021-8-26T10:02:07Z
2021-08-26T08:03:51Z,42.805,6.029,13.2989,4.59999,2470.38,2021-8-26T10:05:10Z
2021-08-26T08:06:54Z,42.805,6.029,13.2985,4.59999,2470.366,2021-8-26T10:08:13Z
2021-08-26T08:09:57Z,42.805,6.029,13.2988,4.59998,2470.343,2021-8-26T10:11:16Z
2021-08-26T08:13:00Z,42.805,6.029,13.2985,4.59999,2470.38,2021-8-26T10:14:20Z
2021-08-26T08:16:03Z,42.805,6.029,13.2988,4.59999,2470.38,2021-8-26T10:17:23Z
2021-08-26T08:19:07Z,42.805,6.029,13.2986,4.59999,2470.404,2021-8-26T10:20:26Z
2021-08-26T08:22:10Z,42.805,6.029,13.2986,4.60001,2470.39,2021-8-26T10:23:29Z
2021-08-26T08:25:13Z,42.805,6.029,13.2986,4.59999,2470.39,2021-8-26T10:26:32Z
2021-08-26T08:28:16Z,42.805,6.029,13.2986,4.59999,2470.38,2021-8-26T10:29:35Z
2021-08-26T08:31:19Z,42.805,6.029,13.2983,4.59999,2470.38,2021-8-26T10:32:38Z
2021-08-26T08:34:22Z,42.805,6.029,13.2988,4.59999,2470.39,2021-8-26T10:35:42Z
2021-08-26T08:37:25Z,42.805,6.029,13.2984,4.59999,2470.39,2021-8-26T10:38:45Z
2021-08-26T08:40:28Z,42.805,6.029,13.2989,4.59999,2470.366,2021-8-26T10:41:48Z
2021-08-26T08:43:32Z,42.805,6.029,13.2983,4.59999,2470.413,2021-8-26T10:44:51Z
2021-08-26T08:46:35Z,42.805,6.029,13.2989,4.59998,2470.366,2021-8-26T10:47:54Z
2021-08-26T08:49:38Z,42.805,6.029,13.2985,4.60000,2470.38,2021-8-26T10:50:57Z
2021-08-26T08:52:41Z,42.805,6.029,13.2990,4.59999,2470.404,2021-8-26T10:54:00Z
2021-08-26T08:55:44Z,42.805,6.029,13.2990,4.59999,2470.404,2021-8-26T10:57:03Z
2021-08-26T08:58:47Z,42.805,6.029,13.2986,4.59999,2470.38,2021-8-26T11:00:07Z
2021-08-26T09:01:50Z,42.805,6.029,13.2983,4.59999,2470.39,2021-8-26T11:03:10Z
2021-08-26T09:04:53Z,42.805,6.029,13.2988,4.59999,2470.427,2021-8-26T11:06:13Z
2021-08-26T09:07:57Z,42.805,6.029,13.2985,4.60000,2470.427,2021-8-26T11:09:16Z
2021-08-26T09:11:00Z,42.805,6.029,13.2985,4.59999,2470.404,2021-8-26T11:12:19Z
2021-08-26T09:14:03Z,42.805,6.029,13.2989,4.59999,2470.366,2021-8-26T11:15:22Z
2021-08-26T09:17:06Z,42.805,6.029,13.2987,4.59999,2470.39,2021-8-26T11:18:25Z
2021-08-26T09:20:09Z,42.805,6.029,13.2986,4.59999,2470.404,2021-8-26T11:21:28Z
2021-08-26T09:23:12Z,42.805,6.029,13.2983,4.60003,2470.427,2021-8-26T11:24:32Z
2021-08-26T09:26:15Z,42.805,6.029,13.2990,4.60000,2470.39,2021-8-26T11:27:35Z
2021-08-26T09:29:18Z,42.805,6.029,13.2986,4.59999,2470.404,2021-8-26T11:30:38Z
2021-08-26T09:32:22Z,42.805,6.029,13.2982,4.59999,2470.38,2021-8-26T11:33:41Z
2021-08-26T09:35:25Z,42.805,6.029,13.2986,4.60000,2470.39,2021-8-26T11:36:44Z
2021-08-26T09:38:28Z,42.805,6.029,13.2987,4.59999,2470.39,2021-8-26T11:39:47Z
2021-08-26T09:41:31Z,42.805,6.029,13.2985,4.59999,2470.404,2021-8-26T11:42:50Z
2021-08-26T09:44:34Z,42.805,6.029,13.2986,4.59999,2470.39,2021-8-26T11:45:53Z
2021-08-26T09:47:37Z,42.805,6.029,13.2984,4.60000,2470.413,2021-8-26T11:48:57Z
2021-08-26T09:50:40Z,42.805,6.029,13.2985,4.59999,2470.39,2021-8-26T11:52:00Z
2021-08-26T09:53:43Z,42.805,6.029,13.2985,4.59999,2470.404,2021-8-26T11:55:03Z
2021-08-26T09:56:47Z,42.805,6.029,13.2989,4.59999,2470.39,2021-8-26T11:58:06Z
2021-08-26T09:59:50Z,42.805,6.029,13.2985,4.59999,2470.39,2021-8-26T12:01:09Z
2021-08-26T10:02:53Z,42.805,6.029,13.2986,4.59999,2470.357,2021-8-26T12:04:12Z
2021-08-26T10:05:56Z,42.805,6.029,13.2986,4.59999,2470.366,2021-8-26T12:07:15Z
2021-08-26T10:08:59Z,42.805,6.029,13.2986,4.59999,2470.404,2021-8-26T12:10:18Z
2021-08-26T10:12:02Z,42.805,6.029,13.2986,4.60000,2470.357,2021-8-26T12:13:22Z
2021-08-26T10:15:05Z,42.805,6.029,13.2983,4.59999,2470.404,2021-8-26T12:16:25Z
2021-08-26T10:18:08Z,42.805,6.029,13.2988,4.59999,2470.366,2021-8-26T12:19:28Z
2021-08-26T10:21:12Z,42.805,6.029,13.2987,4.59999,2470.366,2021-8-26T12:22:31Z
2021-08-26T10:24:15Z,42.805,6.029,13.2987,4.60000,2470.366,2021-8-26T12:25:34Z
2021-08-26T10:27:18Z,42.805,6.029,13.2989,4.60000,2470.343,2021-8-26T12:28:37Z
2021-08-26T10:30:21Z,42.805,6.029,13.2983,4.59999,2470.343,2021-8-26T12:31:40Z
2021-08-26T10:33:24Z,42.805,6.029,13.2989,4.59999,2470.404,2021-8-26T12:34:44Z
2021-08-26T10:36:27Z,42.805,6.029,13.2986,4.59999,2470.39,2021-8-26T12:37:47Z
2021-08-26T10:39:30Z,42.805,6.029,13.2986,4.60000,2470.366,2021-8-26T12:40:50Z
2021-08-26T10:42:34Z,42.805,6.029,13.2988,4.60001,2470.38,2021-8-26T12:43:53Z
2021-08-26T10:45:37Z,42.805,6.029,13.2987,4.60001,2470.343,2021-8-26T12:46:56Z
2021-08-26T10:48:40Z,42.805,6.029,13.2986,4.60000,2470.38,2021-8-26T12:49:59Z
2021-08-26T10:51:43Z,42.805,6.029,13.2985,4.60000,2470.366,2021-8-26T12:53:02Z
2021-08-26T10:54:46Z,42.805,6.029,13.2986,4.60001,2470.357,2021-8-26T12:56:05Z
2021-08-26T10:57:49Z,42.805,6.029,13.2985,4.59999,2470.39,2021-8-26T12:59:09Z
2021-08-26T11:00:52Z,42.805,6.029,13.2989,4.59999,2470.366,2021-8-26T13:02:12Z
2021-08-26T11:03:55Z,42.805,6.029,13.2983,4.60001,2470.404,2021-8-26T13:05:15Z
2021-08-26T11:06:59Z,42.805,6.029,13.2986,4.59999,2470.357,2021-8-26T13:08:18Z
2021-08-26T11:10:02Z,42.805,6.029,13.2986,4.60001,2470.366,2021-8-26T13:11:21Z
2021-08-26T11:13:05Z,42.805,6.029,13.2985,4.60000,2470.357,2021-8-26T13:14:24Z
2021-08-26T11:16:08Z,42.805,6.029,13.2986,4.60000,2470.366,2021-8-26T13:17:27Z
2021-08-26T11:19:11Z,42.805,6.029,13.2987,4.60000,2470.366,2021-8-26T13:20:30Z
2021-08-26T11:22:14Z,42.805,6.029,13.2985,4.60002,2470.32,2021-8-26T13:23:34Z
2021-08-26T11:25:17Z,42.805,6.029,13.2988,4.59999,2470.366,2021-8-26T13:26:37Z
2021-08-26T11:28:20Z,42.805,6.029,13.2989,4.59999,2470.38,2021-8-26T13:29:40Z
2021-08-26T11:31:24Z,42.805,6.029,13.2985,4.60001,2470.38,2021-8-26T13:32:43Z
2021-08-26T11:34:27Z,42.805,6.029,13.2983,4.59999,2470.357,2021-8-26T13:35:46Z
2021-08-26T11:37:30Z,42.805,6.029,13.2985,4.59999,2470.366,2021-8-26T13:38:49Z
2021-08-26T11:40:33Z,42.805,6.029,13.2982,4.60000,2470.357,2021-8-26T13:41:52Z
2021-08-26T11:43:36Z,42.805,6.029,13.2986,4.60001,2470.32,2021-8-26T13:44:55Z
2021-08-26T11:46:39Z,42.805,6.029,13.2983,4.59999,2470.343,2021-8-26T13:47:59Z
2021-08-26T11:49:42Z,42.805,6.029,13.2985,4.60000,2470.343,2021-8-26T13:51:02Z
2021-08-26T11:52:45Z,42.805,6.029,13.2986,4.59999,2470.343,2021-8-26T13:54:05Z
2021-08-26T11:55:49Z,42.805,6.029,13.2987,4.60002,2470.343,2021-8-26T13:57:08Z
2021-08-26T11:58:52Z,42.805,6.029,13.2984,4.59998,2470.343,2021-8-26T14:00:11Z
2021-08-26T12:01:55Z,42.805,6.029,13.2986,4.59999,2470.334,2021-8-26T14:03:14Z
2021-08-26T12:04:58Z,42.805,6.029,13.2983,4.59999,2470.32,2021-8-26T14:06:17Z
2021-08-26T12:08:01Z,42.805,6.029,13.2990,4.59999,2470.297,2021-8-26T14:09:21Z
2021-08-26T12:11:04Z,42.805,6.029,13.2985,4.59999,2470.334,2021-8-26T14:12:24Z
2021-08-26T12:14:07Z,42.805,6.029,13.2984,4.59999,2470.31,2021-8-26T14:15:27Z
2021-08-26T12:17:10Z,42.805,6.029,13.2985,4.59998,2470.32,2021-8-26T14:18:30Z
2021-08-26T12:20:14Z,42.805,6.029,13.2987,4.59999,2470.334,2021-8-26T14:21:33Z
2021-08-26T12:23:17Z,42.805,6.029,13.2986,4.60002,2470.32,2021-8-26T14:24:36Z
2021-08-26T12:26:20Z,42.805,6.029,13.2987,4.59999,2470.297,2021-8-26T14:27:39Z
2021-08-26T12:29:23Z,42.805,6.029,13.2991,4.59999,2470.297,2021-8-26T14:30:42Z
2021-08-26T12:32:26Z,42.805,6.029,13.2984,4.59999,2470.334,2021-8-26T14:33:46Z
2021-08-26T12:35:29Z,42.805,6.029,13.2987,4.60000,2470.33,2021-8-26T14:36:49Z
2021-08-26T12:38:32Z,42.805,6.029,13.2979,4.60000,2470.297,2021-8-26T14:39:52Z
2021-08-26T12:41:36Z,42.805,6.029,13.2985,4.60000,2470.297,2021-8-26T14:42:55Z
2021-08-26T12:44:39Z,42.805,6.029,13.2986,4.59999,2470.343,2021-8-26T14:45:58Z
2021-08-26T12:47:42Z,42.805,6.029,13.2986,4.60006,2470.297,2021-8-26T14:49:01Z
2021-08-26T12:50:45Z,42.805,6.029,13.2982,4.60000,2470.273,2021-8-26T14:52:04Z
2021-08-26T12:53:48Z,42.805,6.029,13.2986,4.59998,2470.32,2021-8-26T14:55:07Z
2021-08-26T12:56:51Z,42.805,6.029,13.2982,4.59998,2470.357,2021-8-26T14:58:11Z
2021-08-26T12:59:54Z,42.805,6.029,13.2986,4.59999,2470.297,2021-8-26T15:01:14Z
2021-08-26T13:02:57Z,42.805,6.029,13.2987,4.59998,2470.32,2021-8-26T15:04:17Z
2021-08-26T13:06:01Z,42.805,6.029,13.2988,4.59999,2470.273,2021-8-26T15:07:20Z
2021-08-26T13:09:04Z,42.805,6.029,13.2987,4.60000,2470.297,2021-8-26T15:10:23Z
2021-08-26T13:12:07Z,42.805,6.029,13.2984,4.60000,2470.297,2021-8-26T15:13:26Z
2021-08-26T13:15:10Z,42.805,6.029,13.2986,4.60001,2470.273,2021-8-26T15:16:29Z
2021-08-26T13:18:13Z,42.805,6.029,13.2986,4.59997,2470.273,2021-8-26T15:19:33Z
2021-08-26T13:21:16Z,42.805,6.029,13.2986,4.59998,2470.297,2021-8-26T15:22:36Z
2021-08-26T13:24:19Z,42.805,6.029,13.2983,4.59999,2470.31,2021-8-26T15:25:39Z
2021-08-26T13:27:22Z,42.805,6.029,13.2987,4.59999,2470.306,2021-8-26T15:28:42Z
2021-08-26T13:30:26Z,42.805,6.029,13.2989,4.60000,2470.264,2021-8-26T15:31:45Z
2021-08-26T13:33:29Z,42.805,6.029,13.2985,4.60001,2470.31,2021-8-26T15:34:48Z
2021-08-26T13:36:32Z,42.805,6.029,13.2987,4.60000,2470.297,2021-8-26T15:37:51Z
2021-08-26T13:39:35Z,42.805,6.029,13.2983,4.59999,2470.273,2021-8-26T15:40:54Z
2021-08-26T13:42:38Z,42.805,6.029,13.2986,4.59999,2470.264,2021-8-26T15:43:58Z
2021-08-26T13:45:41Z,42.805,6.029,13.2982,4.59998,2470.273,2021-8-26T15:47:01Z
2021-08-26T13:48:44Z,42.805,6.029,13.2984,4.60001,2470.273,2021-8-26T15:50:04Z
2021-08-26T13:51:47Z,42.805,6.029,13.2985,4.59999,2470.25,2021-8-26T15:53:07Z
2021-08-26T13:54:51Z,42.805,6.029,13.2983,4.59999,2470.273,2021-8-26T15:56:10Z
2021-08-26T13:57:54Z,42.805,6.029,13.2986,4.59999,2470.25,2021-8-26T15:59:13Z
2021-08-26T14:00:57Z,42.805,6.029,13.2985,4.60000,2470.273,2021-8-26T16:02:16Z
2021-08-26T14:04:00Z,42.805,6.029,13.2983,4.60001,2470.32,2021-8-26T16:05:19Z
2021-08-26T14:07:03Z,42.805,6.029,13.2989,4.60004,2470.25,2021-8-26T16:08:22Z
2021-08-26T14:10:06Z,42.805,6.029,13.2990,4.60000,2470.236,2021-8-26T16:11:26Z
2021-08-26T14:13:09Z,42.805,6.029,13.2986,4.59999,2470.25,2021-8-26T16:14:29Z
2021-08-26T14:16:12Z,42.805,6.029,13.2987,4.59998,2470.273,2021-8-26T16:17:32Z
2021-08-26T14:19:16Z,42.805,6.029,13.2987,4.60000,2470.273,2021-8-26T16:20:35Z
2021-08-26T14:22:19Z,42.805,6.029,13.2983,4.59999,2470.287,2021-8-26T16:23:38Z
2021-08-26T14:25:22Z,42.805,6.029,13.2984,4.59999,2470.273,2021-8-26T16:26:41Z
2021-08-26T14:28:25Z,42.805,6.029,13.2986,4.59999,2470.26,2021-8-26T16:29:44Z
2021-08-26T14:31:28Z,42.805,6.029,13.2985,4.60001,2470.273,2021-8-26T16:32:47Z
2021-08-26T14:34:31Z,42.805,6.029,13.2982,4.59998,2470.25,2021-8-26T16:35:51Z
2021-08-26T14:37:34Z,42.805,6.029,13.2983,4.60001,2470.227,2021-8-26T16:38:54Z
2021-08-26T14:40:37Z,42.805,6.029,13.2985,4.59998,2470.25,2021-8-26T16:41:57Z
2021-08-26T14:43:41Z,42.805,6.029,13.2983,4.60000,2470.264,2021-8-26T16:45:00Z
2021-08-26T14:46:44Z,42.805,6.029,13.2985,4.60001,2470.24,2021-8-26T16:48:03Z
2021-08-26T14:49:47Z,42.805,6.029,13.2989,4.60000,2470.264,2021-8-26T16:51:06Z
2021-08-26T14:52:50Z,42.805,6.029,13.2986,4.59999,2470.25,2021-8-26T16:54:09Z
2021-08-26T14:55:53Z,42.805,6.029,13.2985,4.60002,2470.203,2021-8-26T16:57:13Z
2021-08-26T14:58:56Z,42.805,6.029,13.2987,4.60000,2470.25,2021-8-26T17:00:16Z
2021-08-26T15:01:59Z,42.805,6.029,13.2982,4.60002,2470.227,2021-8-26T17:03:19Z
2021-08-26T15:05:02Z,42.805,6.029,13.2988,4.59999,2470.227,2021-8-26T17:06:22Z
2021-08-26T15:08:06Z,42.805,6.029,13.2983,4.59998,2470.24,2021-8-26T17:09:25Z
2021-08-26T15:11:09Z,42.805,6.029,13.2986,4.60001,2470.25,2021-8-26T17:12:28Z
2021-08-26T15:14:12Z,42.805,6.029,13.2987,4.59999,2470.227,2021-8-26T17:15:31Z